Location: Kawakawa
(35.3830°S, 174.0670°E)
Time: 03:18:24
(UTC+12:00)

Cosmos 1452 Rocket - Pass Details

Date: 15 August 2020
Orbit: 767 x 774 km, 74.1° (Epoch: 19 September)

Event Time Altitude Azimuth Distance (km) Brightness Sun altitude
Rises 18:05:54 0° 3° (N) 3,233 6.9 -3.6°
Reaches altitude 10° 18:08:22 10° 9° (N) 2,315 6.1 -4.0°
Maximum altitude 18:13:18 42° 79° (ENE) 1,110 4.0 -5.0°
Drops below altitude 10° 18:18:17 10° 148° (SSE) 2,348 5.6 -6.0°
Sets 18:20:48 0° 154° (SSE) 3,283 6.4 -6.5°
